WZZ21WX EPGD-ENHD

Flight info

Callsign WZZ21WX
Flight time 1h 36m
Altitude 38000
Route VAPOS N133 PENOR DCT KOTAM DCT VADIN DCT GOTEX DCT AMSEV DCT RIVEX
Aircraft A321/M-SDE3FGHIRWY/LB1

Departure

Time 2026-04-27 17:53
Airport Gdańsk Lech Wałęsa Airport (EPGD)

Arrival

Time 2026-04-27 19:29
Airport Haugesund Airport, Karmøy (ENHD)
Time Latitude Longitude Altitude Speed Heading
2026-04-27 17:18 54.38128 18.46559 461 ft 0 kts 23°
2026-04-27 17:18 54.38133 18.46562 460 ft 0 kts 23°
2026-04-27 17:37 54.38118 18.46551 459 ft 4 kts 34°
2026-04-27 17:37 54.38101 18.46520 457 ft 4 kts 73°
2026-04-27 17:37 54.38100 18.46480 457 ft 3 kts 112°
2026-04-27 17:37 54.38103 18.46469 459 ft 0 kts 113°
2026-04-27 17:44 54.38102 18.46474 460 ft 0 kts 113°
2026-04-27 17:45 54.38100 18.46479 460 ft 3 kts 112°
2026-04-27 17:45 54.38083 18.46549 460 ft 8 kts 112°
2026-04-27 17:46 54.38042 18.46614 460 ft 9 kts 175°
2026-04-27 17:46 54.37974 18.46583 460 ft 11 kts 187°
2026-04-27 17:46 54.37924 18.46672 459 ft 12 kts 111°
2026-04-27 17:46 54.37890 18.46814 458 ft 14 kts 112°
2026-04-27 17:47 54.37850 18.46976 460 ft 16 kts 113°
2026-04-27 17:47 54.37820 18.47093 457 ft 17 kts 114°
2026-04-27 17:47 54.37755 18.47350 459 ft 18 kts 111°
2026-04-27 17:47 54.37710 18.47536 463 ft 17 kts 113°
2026-04-27 17:48 54.37664 18.47716 466 ft 16 kts 112°
2026-04-27 17:48 54.37622 18.47890 470 ft 15 kts 112°
2026-04-27 17:48 54.37581 18.48054 472 ft 15 kts 113°
2026-04-27 17:48 54.37542 18.48208 472 ft 13 kts 111°
2026-04-27 17:49 54.37504 18.48365 475 ft 20 kts 113°
2026-04-27 17:49 54.37447 18.48593 483 ft 20 kts 113°
2026-04-27 17:49 54.37395 18.48804 485 ft 19 kts 112°
2026-04-27 17:49 54.37346 18.49005 493 ft 17 kts 113°
2026-04-27 17:50 54.37306 18.49165 494 ft 15 kts 114°
2026-04-27 17:50 54.37229 18.49270 496 ft 0 kts 199°
2026-04-27 17:51 54.37224 18.49267 496 ft 4 kts 200°
2026-04-27 17:51 54.37158 18.49171 492 ft 16 kts 236°
2026-04-27 17:52 54.37164 18.49008 491 ft 9 kts 294°
2026-04-27 17:52 54.37167 18.48998 492 ft 0 kts 293°
2026-04-27 17:52 54.37179 18.48952 490 ft 27 kts 294°
2026-04-27 17:52 54.37278 18.48548 491 ft 83 kts 292°
2026-04-27 17:53 54.37751 18.46607 481 ft 170 kts 291°
2026-04-27 17:53 54.38246 18.44738 1235 ft 170 kts 295°
2026-04-27 17:53 54.38731 18.42919 2094 ft 167 kts 297°
2026-04-27 17:53 54.39202 18.41009 2593 ft 184 kts 297°
2026-04-27 17:54 54.39722 18.38859 2970 ft 206 kts 296°
2026-04-27 17:54 54.40305 18.36449 3293 ft 232 kts 296°
2026-04-27 17:54 54.40949 18.33794 3979 ft 246 kts 297°
2026-04-27 17:54 54.41603 18.31094 4889 ft 250 kts 297°
2026-04-27 17:55 54.42286 18.28337 5856 ft 252 kts 301°
2026-04-27 17:55 54.43375 18.26042 6733 ft 249 kts 326°
2026-04-27 17:55 54.44842 18.24441 7620 ft 251 kts 330°
2026-04-27 17:55 54.46335 18.22877 8548 ft 252 kts 330°
2026-04-27 17:56 54.47840 18.21299 9483 ft 254 kts 329°
2026-04-27 17:56 54.49351 18.19705 10376 ft 256 kts 329°
2026-04-27 17:56 54.50921 18.18045 10805 ft 276 kts 329°
2026-04-27 17:56 54.52623 18.16245 11079 ft 298 kts 329°
2026-04-27 17:57 54.54422 18.14337 11674 ft 307 kts 329°
2026-04-27 17:57 54.56246 18.12397 12432 ft 310 kts 328°
2026-04-27 17:57 54.58094 18.10431 13222 ft 313 kts 328°
2026-04-27 17:57 54.59931 18.08375 13996 ft 317 kts 323°
2026-04-27 17:58 54.61698 18.06076 14693 ft 320 kts 323°
2026-04-27 17:58 54.63483 18.03748 15385 ft 323 kts 323°
2026-04-27 17:58 54.65281 18.01392 16077 ft 326 kts 323°
2026-04-27 17:58 54.67098 17.99009 16782 ft 330 kts 323°
2026-04-27 17:59 54.68933 17.96602 17474 ft 333 kts 323°
2026-04-27 17:59 54.70791 17.94166 18173 ft 336 kts 323°
2026-04-27 17:59 54.72664 17.91708 18794 ft 340 kts 323°
2026-04-27 17:59 54.74555 17.89220 19408 ft 343 kts 323°
2026-04-27 18:00 54.76467 17.86703 20015 ft 346 kts 323°
2026-04-27 18:00 54.78390 17.84172 20639 ft 349 kts 323°
2026-04-27 18:00 54.80457 17.81941 21225 ft 353 kts 333°
2026-04-27 18:00 54.82704 17.80173 21838 ft 356 kts 334°
2026-04-27 18:01 54.84207 17.79001 22234 ft 358 kts 334°
2026-04-27 18:01 54.85089 17.78314 22461 ft 360 kts 334°
2026-04-27 18:01 54.87382 17.76531 23033 ft 362 kts 334°
2026-04-27 18:01 54.89689 17.74719 23608 ft 365 kts 334°
2026-04-27 18:02 54.92012 17.72879 24105 ft 368 kts 334°
2026-04-27 18:02 54.94328 17.70957 24550 ft 370 kts 328°
2026-04-27 18:02 54.96339 17.68142 24969 ft 373 kts 312°
2026-04-27 18:02 54.97952 17.64582 25410 ft 377 kts 308°
2026-04-27 18:03 54.99546 17.60921 25831 ft 380 kts 308°
2026-04-27 18:03 55.01140 17.57229 26259 ft 383 kts 308°
2026-04-27 18:03 55.02743 17.53501 26693 ft 386 kts 308°
2026-04-27 18:03 55.04336 17.49789 27110 ft 389 kts 308°
2026-04-27 18:04 55.05985 17.45948 27521 ft 392 kts 308°
2026-04-27 18:04 55.07624 17.42130 27933 ft 395 kts 308°
2026-04-27 18:04 55.08720 17.39584 28201 ft 397 kts 308°
2026-04-27 18:04 55.10385 17.35724 28603 ft 400 kts 308°
2026-04-27 18:05 55.12608 17.30552 29128 ft 404 kts 308°
2026-04-27 18:05 55.14294 17.26613 29508 ft 407 kts 308°
2026-04-27 18:05 55.15995 17.22637 29885 ft 410 kts 308°
2026-04-27 18:05 55.17704 17.18634 30253 ft 412 kts 308°
2026-04-27 18:06 55.18867 17.15906 30491 ft 414 kts 308°
2026-04-27 18:06 55.21157 17.10528 30935 ft 418 kts 308°
2026-04-27 18:06 55.22335 17.07761 31155 ft 419 kts 307°
2026-04-27 18:06 55.24076 17.03662 31563 ft 419 kts 307°
2026-04-27 18:07 55.25812 16.99566 32039 ft 418 kts 307°
2026-04-27 18:07 55.27538 16.95483 32512 ft 417 kts 307°
2026-04-27 18:07 55.29260 16.91404 32960 ft 416 kts 307°
2026-04-27 18:07 55.30976 16.87327 33427 ft 414 kts 307°
2026-04-27 18:08 55.32641 16.83365 33868 ft 414 kts 307°
2026-04-27 18:08 55.34349 16.79299 34312 ft 413 kts 307°
2026-04-27 18:08 55.36050 16.75243 34666 ft 412 kts 307°
2026-04-27 18:08 55.37750 16.71179 34997 ft 412 kts 307°
2026-04-27 18:09 55.39450 16.67117 35306 ft 413 kts 307°
2026-04-27 18:09 55.41152 16.63045 35623 ft 413 kts 307°
2026-04-27 18:09 55.42851 16.58974 35930 ft 413 kts 307°
2026-04-27 18:09 55.44551 16.54895 36244 ft 413 kts 307°
2026-04-27 18:10 55.46249 16.50806 36548 ft 414 kts 307°
2026-04-27 18:10 55.47949 16.46705 36839 ft 414 kts 307°
2026-04-27 18:10 55.49645 16.42597 37129 ft 414 kts 307°
2026-04-27 18:10 55.51338 16.38495 37416 ft 414 kts 307°
2026-04-27 18:11 55.53032 16.34385 37667 ft 414 kts 307°
2026-04-27 18:11 55.54728 16.30266 37923 ft 415 kts 307°
2026-04-27 18:11 55.56419 16.26148 38177 ft 415 kts 307°
2026-04-27 18:11 55.58118 16.22009 38320 ft 416 kts 307°
2026-04-27 18:12 55.61521 16.13724 38333 ft 417 kts 307°
2026-04-27 18:12 55.64923 16.05398 38329 ft 417 kts 306°
2026-04-27 18:13 55.68312 15.97051 38331 ft 418 kts 306°
2026-04-27 18:13 55.71660 15.88777 38331 ft 418 kts 306°
2026-04-27 18:14 55.75055 15.80380 38333 ft 419 kts 306°
2026-04-27 18:14 55.78452 15.71946 38336 ft 420 kts 306°
2026-04-27 18:15 55.81841 15.63475 38340 ft 421 kts 306°
2026-04-27 18:15 55.85238 15.54994 38342 ft 421 kts 306°
2026-04-27 18:16 55.88633 15.46472 38345 ft 422 kts 306°
2026-04-27 18:16 55.92016 15.37931 38340 ft 422 kts 306°
2026-04-27 18:17 55.95402 15.29380 38341 ft 422 kts 306°
2026-04-27 18:17 55.98779 15.20805 38341 ft 422 kts 306°
2026-04-27 18:18 56.02150 15.12223 38337 ft 422 kts 306°
2026-04-27 18:18 56.05508 15.03642 38337 ft 422 kts 306°
2026-04-27 18:19 56.08851 14.95073 38340 ft 421 kts 306°
2026-04-27 18:19 56.12202 14.86464 38338 ft 421 kts 306°
2026-04-27 18:20 56.15427 14.77705 38334 ft 421 kts 303°
2026-04-27 18:20 56.18399 14.68721 38332 ft 421 kts 301°
2026-04-27 18:21 56.21362 14.59567 38329 ft 421 kts 302°
2026-04-27 18:21 56.24343 14.50515 38322 ft 421 kts 302°
2026-04-27 18:22 56.27327 14.41521 38324 ft 421 kts 302°
2026-04-27 18:22 56.30330 14.32455 38324 ft 422 kts 302°
2026-04-27 18:23 56.33325 14.23349 38326 ft 422 kts 302°
2026-04-27 18:23 56.36316 14.14214 38321 ft 423 kts 302°
2026-04-27 18:24 56.39301 14.05064 38323 ft 423 kts 302°
2026-04-27 18:24 56.42260 13.95950 38325 ft 424 kts 301°
2026-04-27 18:25 56.45237 13.86744 38322 ft 424 kts 301°
2026-04-27 18:25 56.48214 13.77518 38328 ft 425 kts 301°
2026-04-27 18:26 56.51184 13.68273 38327 ft 425 kts 301°
2026-04-27 18:26 56.54144 13.59002 38331 ft 425 kts 301°
2026-04-27 18:27 56.57091 13.49764 38330 ft 426 kts 301°
2026-04-27 18:27 56.60049 13.40454 38328 ft 426 kts 301°
2026-04-27 18:28 56.62998 13.31120 38330 ft 426 kts 301°
2026-04-27 18:28 56.65938 13.21764 38342 ft 426 kts 301°
2026-04-27 18:29 56.68872 13.12394 38331 ft 427 kts 301°
2026-04-27 18:29 56.71811 13.03002 38343 ft 427 kts 301°
2026-04-27 18:30 56.74752 12.93588 38336 ft 428 kts 301°
2026-04-27 18:30 56.77647 12.84106 38352 ft 428 kts 300°
2026-04-27 18:31 56.80481 12.74537 38349 ft 429 kts 300°
2026-04-27 18:31 56.83289 12.64941 38348 ft 429 kts 299°
2026-04-27 18:32 56.86103 12.55333 38347 ft 429 kts 300°
2026-04-27 18:32 56.88926 12.45708 38351 ft 429 kts 300°
2026-04-27 18:33 56.91745 12.36065 38353 ft 430 kts 299°
2026-04-27 18:33 56.94559 12.26396 38359 ft 430 kts 300°
2026-04-27 18:34 56.97368 12.16697 38364 ft 431 kts 299°
2026-04-27 18:34 57.00165 12.06967 38365 ft 432 kts 299°
2026-04-27 18:35 57.02944 11.97281 38374 ft 432 kts 299°
2026-04-27 18:35 57.05736 11.87524 38370 ft 432 kts 299°
2026-04-27 18:36 57.08526 11.77745 38372 ft 432 kts 299°
2026-04-27 18:36 57.11299 11.67968 38371 ft 432 kts 299°
2026-04-27 18:37 57.14065 11.58138 38374 ft 432 kts 299°
2026-04-27 18:37 57.16824 11.48304 38372 ft 432 kts 299°
2026-04-27 18:38 57.19582 11.38463 38372 ft 432 kts 299°
2026-04-27 18:38 57.22334 11.28591 38373 ft 433 kts 298°
2026-04-27 18:39 57.25077 11.18713 38374 ft 433 kts 298°
2026-04-27 18:39 57.27820 11.08786 38379 ft 434 kts 298°
2026-04-27 18:40 57.30550 10.98847 38382 ft 434 kts 298°
2026-04-27 18:40 57.33275 10.88885 38386 ft 434 kts 298°
2026-04-27 18:41 57.35979 10.78973 38384 ft 434 kts 298°
2026-04-27 18:41 57.38706 10.68898 38383 ft 435 kts 298°
2026-04-27 18:42 57.40952 10.60571 38391 ft 435 kts 298°
2026-04-27 18:42 57.44095 10.48895 38388 ft 435 kts 298°
2026-04-27 18:43 57.46795 10.38829 38388 ft 436 kts 298°
2026-04-27 18:43 57.49487 10.28735 38386 ft 436 kts 298°
2026-04-27 18:44 57.52175 10.18623 38384 ft 436 kts 298°
2026-04-27 18:44 57.54857 10.08498 38386 ft 436 kts 298°
2026-04-27 18:45 57.57527 9.98363 38392 ft 436 kts 298°
2026-04-27 18:45 57.60185 9.88185 38388 ft 437 kts 297°
2026-04-27 18:46 57.62832 9.77995 38396 ft 437 kts 297°
2026-04-27 18:46 57.65489 9.67780 38396 ft 437 kts 297°
2026-04-27 18:47 57.68119 9.57611 38396 ft 438 kts 297°
2026-04-27 18:47 57.70759 9.47343 38400 ft 438 kts 297°
2026-04-27 18:48 57.73395 9.37045 38401 ft 439 kts 297°
2026-04-27 18:48 57.76024 9.26726 38405 ft 439 kts 297°
2026-04-27 18:49 57.78635 9.16449 38410 ft 440 kts 297°
2026-04-27 18:49 57.81248 9.06079 38410 ft 440 kts 297°
2026-04-27 18:50 57.83857 8.95688 38411 ft 441 kts 297°
2026-04-27 18:50 57.86459 8.85272 38410 ft 441 kts 297°
2026-04-27 18:51 57.89057 8.74831 38410 ft 441 kts 297°
2026-04-27 18:51 57.91655 8.64370 38415 ft 441 kts 297°
2026-04-27 18:52 57.94246 8.53893 38412 ft 441 kts 297°
2026-04-27 18:53 57.98107 8.38148 38406 ft 442 kts 297°
2026-04-27 18:53 58.00238 8.29395 38273 ft 442 kts 297°
2026-04-27 18:53 58.01513 8.24136 38003 ft 441 kts 297°
2026-04-27 18:54 58.02784 8.18875 37737 ft 441 kts 297°
2026-04-27 18:54 58.04055 8.13612 37462 ft 441 kts 297°
2026-04-27 18:54 58.05328 8.08354 37196 ft 441 kts 297°
2026-04-27 18:54 58.06603 8.03070 36936 ft 442 kts 297°
2026-04-27 18:55 58.07877 7.97783 36678 ft 443 kts 297°
2026-04-27 18:55 58.09150 7.92482 36424 ft 443 kts 297°
2026-04-27 18:55 58.10418 7.87163 36171 ft 444 kts 297°
2026-04-27 18:55 58.11685 7.81825 35926 ft 445 kts 296°
2026-04-27 18:56 58.12950 7.76484 35676 ft 445 kts 296°
2026-04-27 18:56 58.14215 7.71127 35434 ft 446 kts 297°
2026-04-27 18:56 58.15484 7.65758 35105 ft 447 kts 297°
2026-04-27 18:56 58.16761 7.60354 34278 ft 453 kts 297°
2026-04-27 18:57 58.18055 7.54874 33420 ft 456 kts 297°
2026-04-27 18:57 58.19337 7.49426 33001 ft 450 kts 296°
2026-04-27 18:57 58.20587 7.44087 32459 ft 447 kts 296°
2026-04-27 18:57 58.21836 7.38723 31938 ft 444 kts 296°
2026-04-27 18:58 58.23079 7.33373 31401 ft 441 kts 296°
2026-04-27 18:58 58.24310 7.28073 30879 ft 438 kts 296°
2026-04-27 18:58 58.25531 7.22802 30308 ft 435 kts 296°
2026-04-27 18:58 58.26739 7.17576 29768 ft 430 kts 296°
2026-04-27 18:59 58.27936 7.12395 29307 ft 428 kts 296°
2026-04-27 18:59 58.29126 7.07231 28745 ft 425 kts 296°
2026-04-27 18:59 58.30305 7.02101 28194 ft 422 kts 296°
2026-04-27 18:59 58.31473 6.97006 27657 ft 418 kts 296°
2026-04-27 19:00 58.32624 6.91966 27137 ft 414 kts 296°
2026-04-27 19:00 58.33766 6.86955 26645 ft 410 kts 296°
2026-04-27 19:00 58.34894 6.82000 26159 ft 407 kts 296°
2026-04-27 19:00 58.36010 6.77075 25686 ft 404 kts 296°
2026-04-27 19:01 58.37116 6.72182 25221 ft 400 kts 296°
2026-04-27 19:01 58.38213 6.67323 24746 ft 397 kts 296°
2026-04-27 19:01 58.39301 6.62495 24299 ft 395 kts 295°
2026-04-27 19:01 58.40376 6.57701 23824 ft 392 kts 295°
2026-04-27 19:02 58.41580 6.53143 23291 ft 388 kts 304°
2026-04-27 19:02 58.43200 6.49081 22743 ft 383 kts 314°
2026-04-27 19:02 58.44995 6.45325 22208 ft 382 kts 314°
2026-04-27 19:02 58.46774 6.41587 21675 ft 380 kts 314°
2026-04-27 19:03 58.48544 6.37838 21093 ft 379 kts 314°
2026-04-27 19:03 58.50305 6.34097 20534 ft 378 kts 314°
2026-04-27 19:03 58.52064 6.30351 19975 ft 377 kts 314°
2026-04-27 19:03 58.53218 6.27887 19620 ft 376 kts 314°
2026-04-27 19:04 58.55543 6.22902 18907 ft 374 kts 314°
2026-04-27 19:04 58.57272 6.19194 18338 ft 372 kts 314°
2026-04-27 19:04 58.58996 6.15503 17737 ft 370 kts 314°
2026-04-27 19:04 58.60707 6.11841 17162 ft 367 kts 314°
2026-04-27 19:05 58.62398 6.08212 16642 ft 363 kts 314°
2026-04-27 19:05 58.64070 6.04607 16129 ft 359 kts 313°
2026-04-27 19:05 58.65725 6.01038 15606 ft 356 kts 313°
2026-04-27 19:05 58.67365 5.97506 15109 ft 353 kts 313°
2026-04-27 19:06 58.68966 5.94050 14622 ft 349 kts 313°
2026-04-27 19:06 58.70593 5.90616 14124 ft 345 kts 318°
2026-04-27 19:06 58.72540 5.88042 13581 ft 338 kts 336°
2026-04-27 19:06 58.74689 5.86264 13051 ft 335 kts 338°
2026-04-27 19:07 58.76833 5.84536 12522 ft 332 kts 339°
2026-04-27 19:07 58.78961 5.82835 11998 ft 329 kts 339°
2026-04-27 19:07 58.81072 5.81153 11495 ft 327 kts 339°
2026-04-27 19:07 58.83165 5.79479 10987 ft 324 kts 338°
2026-04-27 19:08 58.85244 5.77814 10461 ft 323 kts 338°
2026-04-27 19:08 58.87321 5.76148 9874 ft 323 kts 338°
2026-04-27 19:08 58.89362 5.74506 9589 ft 313 kts 338°
2026-04-27 19:08 58.91330 5.72918 9328 ft 300 kts 338°
2026-04-27 19:09 58.93217 5.71396 9062 ft 288 kts 338°
2026-04-27 19:09 58.95039 5.69925 8708 ft 279 kts 338°
2026-04-27 19:09 58.96802 5.68495 8318 ft 272 kts 338°
2026-04-27 19:09 58.98541 5.67080 7942 ft 270 kts 338°
2026-04-27 19:10 59.00273 5.65672 7573 ft 269 kts 338°
2026-04-27 19:10 59.02001 5.64270 7207 ft 269 kts 338°
2026-04-27 19:10 59.03727 5.62868 6822 ft 269 kts 338°
2026-04-27 19:10 59.04868 5.61940 6561 ft 268 kts 338°
2026-04-27 19:11 59.07167 5.60065 6037 ft 268 kts 338°
2026-04-27 19:11 59.08875 5.58669 5637 ft 265 kts 338°
2026-04-27 19:11 59.10540 5.57307 5264 ft 261 kts 338°
2026-04-27 19:11 59.12205 5.55942 4878 ft 258 kts 338°
2026-04-27 19:12 59.13850 5.54590 4482 ft 255 kts 338°
2026-04-27 19:12 59.15473 5.53256 4154 ft 250 kts 338°
2026-04-27 19:12 59.17058 5.51953 3856 ft 244 kts 338°
2026-04-27 19:12 59.18598 5.50686 3613 ft 235 kts 338°
2026-04-27 19:13 59.20036 5.49375 3387 ft 223 kts 329°
2026-04-27 19:13 59.21191 5.47445 3180 ft 215 kts 315°
2026-04-27 19:13 59.22214 5.45403 2967 ft 206 kts 315°
2026-04-27 19:13 59.23205 5.43435 2757 ft 201 kts 315°
2026-04-27 19:14 59.24170 5.41518 2595 ft 192 kts 315°
2026-04-27 19:14 59.25063 5.39740 2514 ft 174 kts 315°
2026-04-27 19:14 59.25872 5.38130 2386 ft 162 kts 315°
2026-04-27 19:14 59.26650 5.36586 2147 ft 157 kts 315°
2026-04-27 19:15 59.27397 5.35102 1931 ft 150 kts 315°
2026-04-27 19:15 59.28125 5.33659 1725 ft 148 kts 315°
2026-04-27 19:15 59.28838 5.32232 1546 ft 146 kts 315°
2026-04-27 19:15 59.29543 5.30818 1337 ft 144 kts 315°
2026-04-27 19:16 59.30220 5.29464 1143 ft 136 kts 316°
2026-04-27 19:16 59.30656 5.28594 1003 ft 134 kts 316°
2026-04-27 19:16 59.31523 5.26862 761 ft 133 kts 315°
2026-04-27 19:16 59.32166 5.25573 585 ft 132 kts 315°
2026-04-27 19:17 59.32803 5.24297 396 ft 130 kts 315°
2026-04-27 19:17 59.33434 5.23037 227 ft 131 kts 314°
2026-04-27 19:17 59.34081 5.21771 108 ft 127 kts 309°
2026-04-27 19:17 59.34740 5.20436 523 ft 150 kts 310°
2026-04-27 19:18 59.35432 5.18867 1217 ft 154 kts 308°
2026-04-27 19:18 59.36070 5.17176 1988 ft 157 kts 306°
2026-04-27 19:18 59.36758 5.15344 2379 ft 178 kts 307°
2026-04-27 19:18 59.37552 5.13265 2499 ft 198 kts 307°
2026-04-27 19:19 59.38392 5.11078 2508 ft 203 kts 307°
2026-04-27 19:19 59.39245 5.08862 2507 ft 204 kts 307°
2026-04-27 19:19 59.40101 5.06638 2508 ft 204 kts 307°
2026-04-27 19:19 59.40896 5.04340 2505 ft 204 kts 294°
2026-04-27 19:20 59.41021 5.01607 2495 ft 204 kts 256°
2026-04-27 19:20 59.40281 4.99289 2508 ft 203 kts 219°
2026-04-27 19:20 59.38981 4.98324 2508 ft 203 kts 181°
2026-04-27 19:20 59.37620 4.98980 2512 ft 203 kts 156°
2026-04-27 19:21 59.36348 5.00187 2511 ft 203 kts 153°
2026-04-27 19:21 59.35089 5.01451 2509 ft 203 kts 153°
2026-04-27 19:21 59.33836 5.02727 2513 ft 203 kts 151°
2026-04-27 19:21 59.32742 5.04466 2510 ft 203 kts 135°
2026-04-27 19:22 59.31765 5.06474 2511 ft 203 kts 133°
2026-04-27 19:22 59.30804 5.08508 2511 ft 203 kts 133°
2026-04-27 19:22 59.29856 5.10516 2511 ft 204 kts 133°
2026-04-27 19:22 59.28881 5.12579 2512 ft 204 kts 133°
2026-04-27 19:23 59.27931 5.14586 2511 ft 204 kts 133°
2026-04-27 19:23 59.26965 5.16619 2512 ft 204 kts 133°
2026-04-27 19:23 59.25998 5.18650 2513 ft 204 kts 133°
2026-04-27 19:23 59.25031 5.20678 2513 ft 204 kts 133°
2026-04-27 19:24 59.24061 5.22706 2511 ft 204 kts 133°
2026-04-27 19:24 59.23090 5.24735 2511 ft 204 kts 133°
2026-04-27 19:24 59.22118 5.26759 2513 ft 208 kts 133°
2026-04-27 19:24 59.21213 5.29105 2598 ft 211 kts 105°
2026-04-27 19:25 59.21185 5.31805 2409 ft 199 kts 68°
2026-04-27 19:25 59.21897 5.33987 2345 ft 184 kts 39°
2026-04-27 19:25 59.22948 5.34961 2372 ft 160 kts
2026-04-27 19:25 59.24021 5.35068 2254 ft 152 kts 352°
2026-04-27 19:26 59.25053 5.34792 2099 ft 148 kts 339°
2026-04-27 19:26 59.26019 5.34125 1937 ft 147 kts 334°
2026-04-27 19:26 59.26957 5.33349 1767 ft 146 kts 331°
2026-04-27 19:26 59.27861 5.32457 1614 ft 145 kts 327°
2026-04-27 19:27 59.28727 5.31466 1561 ft 143 kts 328°
2026-04-27 19:27 59.29540 5.30362 1457 ft 139 kts 324°
2026-04-27 19:27 59.30291 5.29207 1263 ft 136 kts 319°
2026-04-27 19:27 59.30971 5.27948 979 ft 134 kts 314°
2026-04-27 19:28 59.31604 5.26619 758 ft 133 kts 315°
2026-04-27 19:28 59.32255 5.25337 581 ft 133 kts 315°
2026-04-27 19:28 59.32912 5.24047 400 ft 135 kts 314°
2026-04-27 19:28 59.33565 5.22730 210 ft 133 kts 315°
2026-04-27 19:29 59.34183 5.21513 92 ft 111 kts 315°
2026-04-27 19:29 59.34531 5.20828 87 ft 45 kts 315°
2026-04-27 19:29 59.34666 5.20572 90 ft 15 kts 328°
2026-04-27 19:29 59.34736 5.20472 90 ft 7 kts 313°
2026-04-27 19:30 59.34714 5.20441 88 ft 5 kts 161°
2026-04-27 19:30 59.34685 5.20518 91 ft 12 kts 126°
2026-04-27 19:30 59.34611 5.20677 90 ft 17 kts 133°
2026-04-27 19:30 59.34523 5.20861 90 ft 20 kts 134°
2026-04-27 19:31 59.34428 5.21050 89 ft 19 kts 134°
2026-04-27 19:31 59.34361 5.21184 92 ft 13 kts 135°
2026-04-27 19:31 59.34358 5.21313 95 ft 9 kts 46°
2026-04-27 19:31 59.34395 5.21385 97 ft 5 kts 44°
2026-04-27 19:32 59.34401 5.21397 98 ft 0 kts 44°
2026-04-27 19:32 59.34402 5.21397 98 ft 0 kts 44°
2026-04-27 19:32 59.34411 5.21438 97 ft 6 kts 74°
2026-04-27 19:32 59.34429 5.21505 96 ft 0 kts 46°
2026-04-27 19:33 59.34438 5.21521 96 ft 3 kts 45°
2026-04-27 19:33 59.34443 5.21532 96 ft 1 kts 46°
2026-04-27 19:33 59.34452 5.21550 96 ft 0 kts 45°